Regional Weather Roundup
Issued by NWS

Home | Current Version | Previous Version | Text Only | Print | Product List | Glossary On
Versions: 1 2 3 4 5 6 7 8 9 10 11 12 13 14 15 16 17 18 19 20 21 22 23 24 25 26 27 28 29 30 31 32 33 34 35 36 37 38 39 40 41 42 43 44 45 46 47 48 49 50
000
ASUS46 KPQR 262310
RWROR

OREGON REGIONAL WEATHER ROUNDUP
NATIONAL WEATHER SERVICE PORTLAND OR
300 PM PST FRI DEC 26 2014

NOTE: "FAIR" INDICATES FEW OR NO CLOUDS BELOW 12,000 FEET WITH
NO SIGNIFICANT WEATHER AND/OR OBSTRUCTIONS TO VISIBILITY.

ORZ001>013-270000-
NORTHWEST OREGON


CITY           SKY/WX    TMP DP  RH WIND       PRES   REMARKS
ASTORIA        CLOUDY    49  45  86 CALM      30.31S
NEWPORT        MOSUNNY   52  46  82 SW6       30.34S
PORTLAND       CLOUDY    48  43  82 E3        30.35R
VANCOUVER WA   CLOUDY    48  40  73 CALM      30.34S
SCAPPOOSE      CLOUDY    47  42  83 SE6       30.34S
HILLSBORO      CLOUDY    46  43  89 W6        30.34S
AURORA         CLOUDY    48  43  82 CALM      30.35R
MCMINNVILLE    CLOUDY    46  42  86 N3        30.35S
SALEM          MOSUNNY   50  40  68 CALM      30.33S
CORVALLIS      CLOUDY    52  43  71 S6        30.34S
EUGENE         PTSUNNY   50  41  71 W3        30.33S
$$

ORZ021-028-270000-
SOUTHWEST OREGON


CITY           SKY/WX    TMP DP  RH WIND       PRES   REMARKS
NORTH BEND     MOSUNNY   54  46  76 CALM      30.32S
BROOKINGS      SUNNY     57  39  51 CALM      30.27F
ROSEBURG       SUNNY     51  42  71 S3        30.32S
SEXTON SUMMIT  FOG       34  34 100 VRB5      30.23F VSB 1/4 WCI  30
MEDFORD        SUNNY     46  35  65 CALM      30.31F
$$

ORZ014>016-041-270000-
COLUMBIA GORGE


CITY           SKY/WX    TMP DP  RH WIND       PRES   REMARKS
TROUTDALE      CLOUDY    48  41  76 E3        30.34R
THE DALLES     SUNNY     47  35  63 CALM      30.30F
$$

ORZ029>031-041-044-049-050-061>064-502-503-505>511-270000-
EASTERN OREGON


CITY           SKY/WX    TMP DP  RH WIND       PRES   REMARKS
REDMOND        SUNNY     41  25  53 CALM      30.25S
BEND           SUNNY     37  25  60 CALM      30.25F
PRINEVILLE     SUNNY     39  28  65 W5        30.26S
KLAMATH FALLS  SUNNY    N/A N/A N/A CALM      30.23S
LAKEVIEW       SUNNY     34  18  51 N10G16    30.23F WCI  26
HERMISTON      PTCLDY    42  34  73 NE5       30.31S
PENDLETON      PTCLDY    41  28  60 SW5       30.29R
JOHN DAY       MOSUNNY   36  24  64 CALM      30.25R
MEACHAM        CLEAR     29  25  85 CALM      30.21S
LA GRANDE      CLEAR     36  19  51 E5        30.24S WCI  32
BAKER CITY     CLEAR     33  24  69 N12       30.23R WCI  24
BURNS          SUNNY     37  19  48 W5        30.21S WCI  33
ROME             N/A     34  17  50 N9        30.21R WCI  27
ONTARIO        CLEAR     42  22  44 NW9       30.27R
$$


USA.gov is the U.S. government's official web portal to all federal, state and local government web resources and services.